Flag for Germany Weather past 2 weeks in Borken, North Rhine-Westphalia, Germany

Now
68 °F

Passing clouds.


Feels Like: 68 °F
Forecast: 59 / 78 °F
Wind: 3 mph from West

Location: Twenthe

Current Time: Jul 31, 2014 at 12:14:47 PM

Latest Report: Jul 31, 2014 at 11:00 AM


Visibility: 14 mi

Pressure: 30.01 "Hg

Humidity: 68%

Dew point: 57 °F

Location of BorkenLocation

Historic Weather in Borken — Graph

°F

Borken temperature yesterday

Maximum temperature yesterday: 74 °F (at 2:00 PM)
Minimum temperature yesterday: 60 °F (at 6:00 AM)
Average temperature yesterday: 67 °F

Past Weeks' High & Low Weather Summary

 TemperatureHumidityPressure
High92 °F (Jul 19, 4:00 PM)100% (Jul 26, 1:00 AM)30.20 "Hg (Jul 26, 1:00 AM)
Low53 °F (Jul 31, 3:00 AM)28% (Jul 19, 4:00 PM)29.75 "Hg (Jul 20, 5:00 AM)
Average70 °F76%29.97 "Hg
* Reported Jul 16 11:00 AM — Jul 31 11:00 AM, Borken, Weather by CustomWeather, © 2014

Note: Actual official high and low records may vary slightly from our data, if they occured in-between our weather recording intervals... More about our weather records

Advertising

Borken weather history for previous 24 hours

 ConditionsComfort  
Time TempWeatherWind HumidityBarometerVisibility
11:00 AM
Jul 31
68 °FPassing clouds.3 mph68%30.01 "Hg14 mi
10:00 AM65 °FPassing clouds.3 mph72%30.01 "Hg10 mi
9:00 AM63 °FSunny.2 mph82%30.00 "Hg8 mi
8:00 AM59 °FPassing clouds.2 mph93%30.00 "Hg7 mi
7:00 AM54 °FFog.1 mph99%29.99 "Hg3 mi
6:00 AM53 °FSunny.1 mph99%29.99 "Hg1 mi
5:00 AM54 °FPassing clouds.1 mph100%29.99 "Hg3 mi
4:00 AM53 °FClear.1 mph98%29.99 "Hg0 mi
3:00 AM53 °FPassing clouds.1 mph99%29.98 "Hg2 mi
2:00 AM53 °FFog.No wind97%29.98 "Hg1 mi
1:00 AM57 °FPassing clouds.No wind96%29.98 "Hg11 mi
12:00 AM59 °FPassing clouds.1 mph87%29.98 "Hg16 mi
11:00 PM
Jul 30
61 °FClear.2 mph84%29.97 "Hg19 mi
10:00 PM63 °FClear.3 mph80%29.96 "Hg19 mi
9:00 PM67 °FPassing clouds.5 mph74%29.94 "Hg22 mi
8:00 PM70 °FPartly sunny.5 mph65%29.92 "Hg25 mi
7:00 PM72 °FPartly sunny.3 mph61%29.90 "Hg25 mi
6:00 PM73 °FScattered clouds.5 mph54%29.90 "Hg28 mi
5:00 PM73 °FScattered clouds.3 mph58%29.90 "Hg25 mi
4:00 PM72 °FOvercast.5 mph55%29.91 "Hg28 mi
3:00 PM71 °FOvercast.5 mph62%29.91 "Hg25 mi
2:00 PM74 °FScattered clouds.5 mph55%29.90 "Hg25 mi
1:00 PM73 °FScattered clouds.5 mph60%29.90 "Hg25 mi
12:00 PM71 °FPassing clouds.5 mph61%29.90 "Hg25 mi
Weather by CustomWeather, © 2014

See weather overviewHow to use our weather pages